Watonga, OK

3:28 PM CDT on October 21, 2017 (GMT -0500)
Watonga

Weather History for KJWG - January, 2012

Change the Weather History Date:

Monday, January 30, 2012

  Actual Average Record
Temperature  
Mean Temperature 50 °F -  
Max Temperature 60 °F 49 °F 75 °F (2017)
Min Temperature 41 °F 25 °F -3 °F (1966)
Degree Days  
Heating Degree Days 14    
Moisture  
Dew Point 40 °F    
Average Humidity 71    
Maximum Humidity 81    
Minimum Humidity 55    
Precipitation  
Precipitation 0.00 in - - ()
Sea Level Pressure  
Sea Level Pressure 30.02 in    
Wind  
Wind Speed 11 mph (SW)    
Max Wind Speed 24 mph    
Max Gust Speed 30 mph    
Visibility 10 miles    
Events      
Averages and records for this station are not official NWS values.
T = Trace of Precipitation, MM = Missing Value Source: NWS Daily Summary

Daily Weather History Graph

Daily Weather History Graph

Search for Another Location

Airport or City:

Trip Planner

Search our weather history database for the weather conditions in past years. The results will help you decide how hot, cold, wet, or windy it might be!

Date:

Astronomy

Jan. 30, 2012 Rise Set
Actual Time 7:35 AM CST 5:58 PM CST
Civil Twilight 7:08 AM CST 6:25 PM CST
Nautical Twilight 6:38 AM CST 6:56 PM CST
Astronomical Twilight 6:07 AM CST 7:26 PM CST
Moon 11:15 AM CST (1/30) 12:27 AM CST (1/30)
Length of Visible Light 11h 16m
Length of Day
10h 22m
Waxing Crescent, 46% of the Moon is Illuminated
Jan 30
Waxing Crescent
Jan 30
First Quarter
Feb 7
Full
Feb 14
Last Quarter
Feb 21
New

Hourly Weather History & Observations

Time (CST) Temp. Windchill Dew Point Humidity Pressure Visibility Wind Dir Wind Speed Gust Speed Precip Events Conditions
12:15 AM 42.8 °F 38.6 °F 35.6 °F 76% 30.16 in 10.0 mi SSW 6.9 mph - N/A   Clear
12:35 AM 42.8 °F 38.6 °F 33.8 °F 70% 30.16 in 10.0 mi SSW 6.9 mph - N/A   Clear
12:55 AM 42.8 °F 38.0 °F 33.8 °F 70% 30.16 in 10.0 mi SSW 8.1 mph - N/A   Clear
1:15 AM 42.8 °F 39.3 °F 33.8 °F 70% 30.15 in 10.0 mi SSW 5.8 mph - N/A   Clear
1:35 AM 41.0 °F 36.4 °F 33.8 °F 76% 30.14 in 10.0 mi SSW 6.9 mph - N/A   Clear
1:55 AM 41.0 °F 35.8 °F 33.8 °F 76% 30.13 in 10.0 mi SW 8.1 mph - N/A   Clear
2:15 AM 42.8 °F 38.0 °F 35.6 °F 76% 30.12 in 10.0 mi SW 8.1 mph - N/A   Clear
2:35 AM 42.8 °F 36.6 °F 35.6 °F 76% 30.11 in 10.0 mi SW 11.5 mph - N/A   Clear
2:55 AM 42.8 °F 37.0 °F 35.6 °F 76% 30.11 in 10.0 mi SW 10.4 mph - N/A   Clear
3:15 AM 42.8 °F 37.5 °F 35.6 °F 76% 30.11 in 10.0 mi SW 9.2 mph - N/A   Clear
3:35 AM 42.8 °F 37.5 °F 35.6 °F 76% 30.10 in 10.0 mi SW 9.2 mph - N/A   Clear
3:55 AM 42.8 °F 37.0 °F 35.6 °F 76% 30.10 in 10.0 mi SW 10.4 mph - N/A   Clear
4:15 AM 42.8 °F 36.6 °F 35.6 °F 76% 30.08 in 10.0 mi SW 11.5 mph - N/A   Clear
4:35 AM 42.8 °F 36.6 °F 35.6 °F 76% 30.08 in 10.0 mi SW 11.5 mph 17.3 mph N/A   Clear
5:15 AM 41.0 °F 35.2 °F 35.6 °F 81% 30.07 in 10.0 mi SW 9.2 mph - N/A   Clear
5:35 AM 41.0 °F 34.3 °F 35.6 °F 81% 30.06 in 10.0 mi SW 11.5 mph - N/A   Clear
5:55 AM 41.0 °F 34.3 °F 35.6 °F 81% 30.06 in 10.0 mi SW 11.5 mph - N/A   Clear
6:15 AM 41.0 °F 34.7 °F 35.6 °F 81% 30.05 in 10.0 mi SW 10.4 mph - N/A   Clear
6:55 AM 42.8 °F 35.1 °F 35.6 °F 76% 30.05 in 10.0 mi WSW 16.1 mph - N/A   Clear
7:15 AM 42.8 °F 35.8 °F 35.6 °F 76% 30.06 in 10.0 mi SW 13.8 mph - N/A   Clear
7:35 AM 41.0 °F 35.8 °F 35.6 °F 81% 30.06 in 10.0 mi SW 8.1 mph - N/A   Clear
7:55 AM 41.0 °F 35.2 °F 35.6 °F 81% 30.06 in 10.0 mi SW 9.2 mph - N/A   Clear
8:15 AM 41.0 °F 36.4 °F 35.6 °F 81% 30.06 in 10.0 mi SW 6.9 mph - N/A   Clear
8:35 AM 41.0 °F 36.4 °F 35.6 °F 81% 30.06 in 10.0 mi SSW 6.9 mph - N/A   Clear
8:55 AM 41.0 °F 37.1 °F 35.6 °F 81% 30.07 in 10.0 mi SW 5.8 mph - N/A   Clear
9:15 AM 42.8 °F 38.0 °F 37.4 °F 81% 30.06 in 10.0 mi SSW 8.1 mph - N/A   Clear
9:35 AM 44.6 °F 39.2 °F 37.4 °F 76% 30.06 in 10.0 mi SSW 10.4 mph - N/A   Clear
9:55 AM 46.4 °F 39.8 °F 37.4 °F 71% 30.06 in 10.0 mi SW 16.1 mph 19.6 mph N/A   Clear
10:15 AM 46.4 °F 39.8 °F 37.4 °F 71% 30.06 in 10.0 mi SW 16.1 mph - N/A   Clear
10:35 AM 46.4 °F 39.8 °F 37.4 °F 71% 30.06 in 10.0 mi SW 16.1 mph - N/A   Clear
10:55 AM 50.0 °F - 39.2 °F 66% 30.06 in 10.0 mi SW 15.0 mph - N/A   Clear
11:15 AM 51.8 °F - 39.2 °F 62% 30.05 in 10.0 mi SW 13.8 mph - N/A   Clear
11:55 AM 53.6 °F - 41.0 °F 62% 30.05 in 10.0 mi SW 18.4 mph 21.9 mph N/A   Clear
12:15 PM 53.6 °F - 42.8 °F 67% 30.05 in 10.0 mi SW 16.1 mph 19.6 mph N/A   Clear
12:35 PM 53.6 °F - 41.0 °F 62% 30.04 in 10.0 mi WSW 13.8 mph 20.7 mph N/A   Clear
12:55 PM 53.6 °F - 41.0 °F 62% 30.02 in 10.0 mi SW 15.0 mph 23.0 mph N/A   Clear
1:15 PM 55.4 °F - 41.0 °F 58% 30.00 in 10.0 mi SW 17.3 mph 23.0 mph N/A   Clear
1:35 PM 57.2 °F - 42.8 °F 59% 29.99 in 10.0 mi SW 18.4 mph 25.3 mph N/A   Clear
1:55 PM 59.0 °F - 42.8 °F 55% 29.98 in 10.0 mi SW 17.3 mph 23.0 mph N/A   Clear
2:35 PM 59.0 °F - 44.6 °F 59% 29.94 in 10.0 mi SW 21.9 mph 28.8 mph N/A   Clear
3:15 PM 60.8 °F - 44.6 °F 55% 29.92 in 10.0 mi SW 24.2 mph 29.9 mph N/A   Clear
3:35 PM 59.0 °F - 44.6 °F 59% 29.91 in 10.0 mi SW 21.9 mph 29.9 mph N/A   Clear
3:55 PM 59.0 °F - 44.6 °F 59% 29.90 in 10.0 mi SW 20.7 mph 29.9 mph N/A   Clear
4:15 PM 60.8 °F - 46.4 °F 59% 29.90 in 10.0 mi SSW 23.0 mph 29.9 mph N/A   Clear
4:35 PM 60.8 °F - 46.4 °F 59% 29.90 in 10.0 mi SSW 19.6 mph 27.6 mph N/A   Clear
4:55 PM 60.8 °F - 46.4 °F 59% 29.90 in 10.0 mi SSW 17.3 mph 25.3 mph N/A   Clear
5:15 PM 60.8 °F - 44.6 °F 55% 29.90 in 10.0 mi SSW 20.7 mph 28.8 mph N/A   Clear
5:35 PM 60.8 °F - 46.4 °F 59% 29.90 in 10.0 mi SSW 19.6 mph 26.5 mph N/A   Clear
5:55 PM 59.0 °F - 46.4 °F 63% 29.91 in 10.0 mi SSW 19.6 mph 26.5 mph N/A   Clear
6:15 PM 59.0 °F - 46.4 °F 63% 29.91 in 10.0 mi SSW 16.1 mph 24.2 mph N/A   Clear
6:35 PM 57.2 °F - 46.4 °F 67% 29.91 in 10.0 mi SSW 13.8 mph 19.6 mph N/A   Clear
6:55 PM 57.2 °F - 46.4 °F 67% 29.91 in 10.0 mi SSW 11.5 mph 17.3 mph N/A   Clear
7:15 PM 55.4 °F - 46.4 °F 72% 29.90 in 10.0 mi SSW 15.0 mph 20.7 mph N/A   Clear
7:35 PM 55.4 °F - 48.2 °F 77% 29.90 in 10.0 mi SSW 16.1 mph 23.0 mph N/A   Clear
7:55 PM 55.4 °F - 48.2 °F 77% 29.91 in 10.0 mi SSW 17.3 mph 23.0 mph N/A   Clear
8:15 PM 55.4 °F - 48.2 °F 77% 29.91 in 10.0 mi SSW 16.1 mph 23.0 mph N/A   Clear
8:35 PM 55.4 °F - 48.2 °F 77% 29.91 in 10.0 mi SSW 15.0 mph 21.9 mph N/A   Clear
8:55 PM 55.4 °F - 48.2 °F 77% 29.91 in 10.0 mi SSW 15.0 mph 20.7 mph N/A   Clear
9:15 PM 55.4 °F - 48.2 °F 77% 29.91 in 10.0 mi SSW 15.0 mph 23.0 mph N/A   Clear
9:35 PM 55.4 °F - 50.0 °F 82% 29.90 in 10.0 mi SSW 19.6 mph 25.3 mph N/A   Clear
9:55 PM 55.4 °F - 50.0 °F 82% 29.90 in 10.0 mi SSW 20.7 mph 25.3 mph N/A   Clear
10:15 PM 55.4 °F - 50.0 °F 82% 29.90 in 10.0 mi SSW 19.6 mph 26.5 mph N/A   Clear
10:35 PM 55.4 °F - 50.0 °F 82% 29.91 in 10.0 mi SSW 17.3 mph 27.6 mph N/A   Clear
10:55 PM 55.4 °F - 50.0 °F 82% 29.91 in 10.0 mi SSW 18.4 mph 27.6 mph N/A   Clear
11:35 PM 53.6 °F - 50.0 °F 88% 29.91 in 10.0 mi SSW 19.6 mph 24.2 mph N/A   Clear
11:55 PM 53.6 °F - 50.0 °F 88% 29.92 in 10.0 mi SSW 17.3 mph 25.3 mph N/A   Clear